Flag for Japan Weather past 2 weeks in Utsunomiya, Japan

Now
35 °F

Chilly.


Feels Like: 31 °F
Forecast: 22 / 44 °F
Wind: 5 mph from West

Location: Mito

Current Time: Dec 23, 2014 at 7:09:57 AM

Latest Report: Dec 23, 2014 at 5:00 AM


Visibility: N/A

Pressure: 30.01 "Hg

Humidity: 61%

Dew point: 23 °F

Location of UtsunomiyaLocation

Historic Weather in Utsunomiya — Graph

°F

Utsunomiya temperature yesterday

Maximum temperature yesterday: 50 °F (at 2:00 PM)
Minimum temperature yesterday: 33 °F (at 7:00 AM)
Average temperature yesterday: 42 °F

Past Weeks' High & Low Weather Summary

 TemperatureHumidityPressure
High55 °F (Dec 9, 3:00 PM)97% (Dec 11, 9:00 PM)30.46 "Hg (Dec 11, 9:00 PM)
Low26 °F (Dec 15, 4:00 AM)23% (Dec 22, 1:00 PM)29.21 "Hg (Dec 16, 9:00 PM)
Average40 °F65%29.98 "Hg
* Reported Dec 8 5:00 AM — Dec 23 5:00 AM, Utsunomiya, Weather by CustomWeather, © 2014

Note: Actual official high and low records may vary slightly from our data, if they occured in-between our weather recording intervals... More about our weather records

Advertising

Utsunomiya weather history for previous 24 hours

 ConditionsComfort  
Time TempWeatherWind HumidityBarometerVisibility
5:00 AM
Dec 23
35 °FChilly.5 mph61%30.01 "HgN/A
4:00 AM36 °FChilly.3 mph58%29.98 "HgN/A
3:00 AM36 °FPassing clouds.3 mph58%29.95 "Hg19 mi
12:00 AM40 °FQuite cool.7 mph41%29.84 "HgN/A
11:00 PM
Dec 22
42 °FQuite cool.8 mph35%29.82 "HgN/A
10:00 PM41 °FQuite cool.6 mph39%29.83 "HgN/A
9:00 PM42 °FPassing clouds.8 mph37%29.83 "Hg19 mi
8:00 PM37 °FChilly.6 mph60%29.83 "HgN/A
7:00 PM42 °FQuite cool.3 mph37%29.82 "HgN/A
6:00 PM44 °FQuite cool.5 mph33%29.80 "HgN/A
5:00 PM46 °FCool.9 mph29%29.79 "HgN/A
4:00 PM47 °FCool.8 mph29%29.78 "HgN/A
3:00 PM49 °FPassing clouds.10 mph26%29.76 "Hg19 mi
2:00 PM50 °FCool.12 mph25%29.75 "HgN/A
1:00 PM49 °FCool.15 mph23%29.76 "HgN/A
12:00 PM48 °FCool.14 mph24%29.78 "HgN/A
11:00 AM48 °FCool.9 mph27%29.82 "HgN/A
10:00 AM46 °FCool.10 mph34%29.83 "HgN/A
9:00 AM39 °FPassing clouds.2 mph68%29.83 "Hg25 mi
8:00 AM33 °FChilly.2 mph92%29.83 "HgN/A
7:00 AM33 °FChilly.3 mph95%29.83 "HgN/A
Weather by CustomWeather, © 2014

See weather overviewHow to use our weather pages